Vertical_Velocity
-1 0 1 1 -1 -2 -3 -1 0 -1 -2 -1 -2 -3 -4 -8 -5 -1 -1 1 1 -0 1 -2 3 -0 7 -1 10 -4 2 -0 -6 1 -5 -3 -1 1 4 -1 -0 2 -3 0 -3
-1 -1 -1 1 0 1 0 -1 -2 -2 -2 -3 -1 -1 -1 -1 -2 -4 -0 3 -4 -0 -0 -1 -9 7 5 1 5 3 4 -6 -3 -2 -2 -3 -0 2 2 1 -1 -2 3 7 1
-2 -0 -4 -3 1 -2 -1 -2 -1 -1 -4 -2 -4 -3 -3 -3 -5 -4 4 6 2 2 -5 0 2 9 7 7 -5 -4 -7 -5 -8 -2 9 -0 -1 -3 1 1 -3 -10 -1 6 3
-3 2 -0 -3 -2 -1 -0 -1 -2 -2 -3 -1 -2 -2 -1 -5 -6 -1 -3 -7 -9 3 -0 -2 -2 4 2 2 -4 11 -2 1 -10 -1 2 0 1 -1 1 -1 -5 0 -1 -8 2
-3 -2 1 -0 -4 -2 -2 -1 1 -1 -3 -1 -2 1 -3 1 -14 8 11 4 -3 0 0 1 0 4 3 1 3 10 -7 1 -1 -10 4 2 -2 -2 -0 2 5 3 4 -1 1
-2 -6 -1 -3 -4 -2 -2 -4 0 -0 0 1 -0 0 1 -1 1 8 -10 -5 1 -1 -7 2 0 4 3 -1 9 -5 1 -5 0 -4 3 4 -2 5 4 1 3 2 4 4 1
0 -5 -4 -0 -5 -4 -3 -2 -3 1 -0 2 0 0 1 -16 2 -4 7 2 0 10 -2 -8 2 12 4 -2 -0 -2 10 1 -1 -5 -5 3 5 0 -1 8 1 3 -2 2 4
-1 -5 -2 0 -5 -5 -6 1 -4 -0 0 1 1 0 -10 6 3 7 -1 -4 -5 -1 14 7 8 8 6 -2 -8 4 8 8 -10 1 -9 2 -6 -2 5 -4 2 3 2 -1 8
-2 -3 -3 1 -3 -4 -6 -4 -4 -0 -3 10 -3 -1 -10 8 1 -5 5 -2 -5 -4 -9 -3 13 -3 5 3 1 -0 -1 1 -4 -1 0 -3 -1 -5 1 6 2 3 3 2 3
-0 -1 -3 -1 -1 -4 -6 -9 -3 -4 -8 -3 -3 7 -2 -12 -4 -10 6 4 4 -2 1 2 8 2 1 2 -3 -2 2 1 -3 -10 4 2 0 1 -1 3 -2 -1 2 5 3
-1 -1 -2 -0 0 -2 -12 -19 -45 -10 -5 -1 1 -5 1 -2 9 -16 2 -5 -4 3 1 -3 0 -1 -6 -2 -3 3 2 1 -1 -6 -2 -2 -0 -2 0 6 4 2 3 2 2
-2 -1 -2 -0 2 -1 -2 -12 2 -3 -15 1 -1 0 -3 9 -5 -8 14 -4 2 -0 -1 2 -2 -7 1 1 1 2 1 -4 -5 -1 -1 0 -2 -1 0 -0 -4 -6 4 1 1
0 -4 -3 -3 -0 -0 -3 3 3 -1 2 -14 5 1 5 6 -2 -0 -3 0 2 1 -0 1 -7 1 3 0 3 0 -1 -1 -0 -2 -1 -2 -0 2 0 2 1 7 5 9 -1
-0 2 -3 -6 -5 -7 -1 2 1 -1 -5 -6 -3 6 -17 5 -3 3 -3 4 -3 3 1 2 -4 2 1 -0 -2 1 -1 -0 -0 2 -3 -3 -4 -0 1 2 0 3 3 2 0
-2 -4 1 4 -2 -4 2 2 -4 0 -11 -30 -4 4 -3 5 5 -12 -2 -3 1 -0 4 -10 -1 -0 0 -5 -2 -5 1 -2 -1 -0 -1 4 -5 -9 -1 3 2 3 4 4 5
0 -3 -3 3 3 7 5 2 -3 -17 -13 -7 -1 -6 -7 -5 -6 -7 -1 2 -1 2 -0 -4 -0 -1 -2 -0 -0 -1 -3 -2 -1 0 -0 -4 -8 -3 -1 -3 2 3 4 2 1
2 -1 -0 -3 -12 -2 -1 -1 -16 -13 -10 -9 -1 -1 2 -2 -6 -2 -1 -7 -1 -2 -3 -4 -2 -2 -2 -5 -1 -4 -1 -1 -3 -1 -2 -0 -4 -5 1 -0 -1 -2 1 0 1
-0 0 -1 -2 0 2 -2 -14 -15 -2 -0 -3 1 -3 1 2 -3 -3 -3 -3 -3 -2 1 2 -14 -2 -4 3 4 -1 -2 -5 -1 -1 1 -1 -2 -7 2 2 4 2 2 1 2
-4 -0 -3 -2 -1 -1 -3 -8 -7 -1 -1 2 -9 -2 -3 -4 4 -3 0 1 2 3 5 1 -4 -4 -0 0 -2 -6 -6 -3 -4 -1 -5 -2 0 -1 -0 0 1 3 2 1 2
-3 1 -3 -4 -0 -3 -12 -2 0 1 1 -2 1 0 1 -1 -3 -3 -2 0 -1 4 3 -3 2 1 -5 -2 -5 -5 -2 -9 -5 -3 -1 -1 0 -2 -1 1 1 1 1 2 2
1 -4 -1 -4 -1 -12 -6 -1 -0 -2 1 -2 -0 -0 1 -0 0 -0 -4 -9 -1 -5 0 2 0 -5 -6 -2 1 -8 -3 -3 -6 -2 -0 -1 0 -3 -2 -1 -1 1 1 -1 1
-1 -4 -4 -3 -15 1 -1 -1 3 -2 -1 1 2 1 1 0 0 0 -0 -2 2 4 0 -1 2 -0 -1 -1 -0 0 -0 -1 -6 -7 -1 -4 -5 1 0 0 -2 -0 2 1 2
-1 -1 -2 -2 -6 -2 -3 -0 2 -2 -0 -1 -0 -0 -0 0 0 1 -0 -1 -0 0 3 -1 -4 -3 -9 -8 -4 -1 -1 -0 -1 -2 -0 -5 -6 0 -0 -0 2 -2 2 1 1
-0 -6 -2 -6 -0 -3 -1 -1 -2 2 0 -1 -0 -1 -1 -1 -1 -3 -2 -4 -1 2 1 -1 -0 -2 1 -2 0 -1 -1 -1 -2 -3 -2 -2 -0 -1 1 0 2 2 2 1 1
0 -1 -1 -3 -3 -0 -1 -0 -0 -2 -0 0 -4 -0 3 0 -1 -0 -1 -5 -4 1 -4 -4 0 -1 -1 0 0 1 0 -0 -2 -0 -6 -4 -1 1 0 -1 -1 0 1 0 1
-3 -3 -0 1 0 -1 -1 -3 0 -3 -2 -2 -2 -1 1 1 3 1 4 1 2 -8 -1 -3 -3 -0 -2 -0 -0 -0 -0 -0 -0 -0 -1 -1 1 -0 2 1 1 1 1 1 0
1 1 -2 0 0 -3 -3 -2 -2 -1 -3 -1 0 3 0 -2 2 -1 2 -1 0 3 -0 -2 -0 -2 -2 -0 -2 -8 -1 0 0 -0 2 -2 1 0 1 1 0 0 1 -0 -0
Height
1538 1536 1534 1531 1529 1526 1523 1519 1516 1512 1509 1506 1502 1498 1494 1491 1488 1483 1480 1482 1482 1481 1481 1483 1485 1485 1488 1488 1489 1491 1495 1482 1478 1479 1477 1469 1472 1470 1468 1468 1470 1474 1477 1481 1491
1538 1536 1533 1531 1528 1525 1522 1519 1515 1510 1507 1503 1498 1494 1490 1486 1483 1480 1479 1478 1479 1479 1480 1480 1482 1484 1483 1482 1482 1483 1484 1471 1467 1472 1473 1472 1471 1470 1468 1468 1474 1475 1478 1482 1489
1539 1536 1533 1530 1527 1524 1520 1516 1512 1508 1504 1500 1494 1491 1488 1485 1482 1480 1482 1481 1481 1480 1479 1479 1480 1482 1479 1478 1474 1471 1468 1468 1467 1470 1471 1470 1468 1469 1465 1468 1468 1474 1481 1486 1490
1538 1536 1533 1529 1526 1522 1518 1514 1509 1504 1500 1496 1491 1488 1485 1484 1487 1481 1480 1479 1480 1478 1478 1478 1478 1477 1475 1472 1472 1472 1461 1465 1470 1470 1471 1471 1468 1467 1467 1465 1466 1470 1474 1483 1489
1537 1535 1532 1528 1524 1520 1516 1511 1507 1501 1496 1492 1489 1487 1484 1485 1481 1481 1480 1479 1477 1476 1476 1475 1475 1475 1469 1467 1468 1464 1458 1466 1468 1471 1464 1470 1468 1467 1467 1464 1464 1470 1475 1481 1489
1537 1534 1530 1526 1522 1517 1513 1509 1504 1498 1494 1490 1487 1485 1484 1485 1479 1479 1479 1477 1475 1473 1472 1473 1472 1471 1467 1464 1463 1462 1459 1461 1463 1463 1464 1465 1464 1467 1466 1464 1463 1468 1475 1481 1487
1536 1532 1528 1524 1519 1514 1510 1506 1501 1496 1491 1489 1486 1483 1483 1481 1479 1479 1478 1476 1473 1472 1469 1470 1469 1469 1466 1462 1459 1458 1459 1457 1457 1457 1458 1461 1463 1462 1465 1464 1465 1468 1476 1482 1487
1536 1531 1526 1522 1517 1512 1508 1503 1497 1492 1489 1488 1486 1485 1482 1480 1479 1478 1476 1471 1469 1468 1467 1466 1466 1464 1462 1462 1457 1456 1454 1456 1451 1453 1452 1458 1466 1459 1462 1464 1468 1470 1474 1480 1486
1534 1530 1526 1520 1515 1510 1504 1500 1494 1488 1488 1487 1486 1486 1483 1482 1480 1477 1474 1469 1466 1464 1463 1461 1461 1461 1460 1462 1461 1456 1451 1451 1456 1447 1451 1454 1462 1458 1461 1462 1467 1471 1474 1478 1483
1534 1529 1525 1519 1513 1508 1502 1497 1490 1489 1489 1485 1487 1488 1483 1482 1478 1474 1472 1468 1464 1461 1458 1457 1457 1459 1458 1462 1463 1450 1454 1449 1450 1445 1447 1451 1455 1455 1458 1460 1463 1469 1474 1477 1481
1534 1529 1524 1518 1513 1507 1499 1493 1491 1491 1489 1491 1490 1488 1483 1480 1477 1472 1468 1465 1462 1458 1458 1456 1458 1455 1451 1454 1453 1455 1453 1445 1441 1439 1444 1447 1449 1451 1454 1459 1461 1467 1471 1476 1480
1532 1528 1523 1519 1513 1508 1503 1500 1505 1507 1498 1488 1487 1486 1484 1479 1473 1469 1466 1465 1461 1457 1453 1456 1455 1445 1449 1449 1451 1450 1453 1451 1445 1439 1445 1446 1448 1449 1452 1455 1458 1461 1468 1474 1480
1532 1527 1522 1518 1514 1511 1506 1506 1504 1503 1503 1490 1489 1487 1485 1481 1474 1470 1468 1464 1459 1455 1452 1455 1446 1441 1444 1445 1449 1448 1457 1455 1450 1442 1440 1446 1453 1455 1452 1455 1460 1464 1467 1472 1477
1532 1527 1522 1517 1515 1511 1508 1506 1503 1501 1506 1497 1490 1489 1485 1479 1476 1473 1469 1467 1461 1456 1452 1447 1444 1439 1437 1442 1441 1453 1444 1446 1451 1450 1452 1450 1459 1455 1455 1458 1462 1466 1469 1473 1478
1531 1527 1523 1517 1517 1512 1510 1504 1502 1503 1534 1499 1495 1492 1487 1486 1480 1475 1470 1464 1463 1459 1459 1449 1443 1442 1442 1438 1435 1441 1438 1442 1450 1454 1455 1458 1467 1460 1455 1463 1464 1466 1469 1474 1478
1529 1526 1523 1521 1516 1513 1507 1503 1503 1514 1548 1505 1500 1496 1491 1485 1480 1476 1472 1466 1463 1459 1454 1451 1441 1441 1436 1437 1437 1440 1444 1445 1449 1453 1462 1462 1463 1462 1464 1457 1463 1468 1471 1474 1479
1528 1524 1522 1520 1516 1512 1507 1504 1519 1538 1517 1514 1506 1500 1498 1491 1483 1480 1478 1474 1475 1468 1459 1449 1446 1443 1439 1437 1443 1443 1446 1451 1458 1456 1453 1458 1457 1462 1464 1462 1459 1463 1471 1476 1480
1527 1523 1522 1519 1516 1512 1507 1508 1541 1524 1526 1516 1510 1502 1497 1495 1489 1485 1484 1485 1480 1477 1470 1456 1456 1453 1448 1446 1447 1449 1448 1456 1454 1456 1459 1453 1475 1470 1470 1467 1462 1466 1471 1476 1481
1524 1521 1520 1519 1515 1512 1510 1533 1538 1536 1524 1519 1511 1507 1506 1501 1502 1494 1496 1488 1488 1485 1482 1471 1462 1452 1452 1451 1450 1447 1458 1446 1459 1458 1466 1465 1469 1469 1473 1473 1472 1472 1475 1478 1481
1523 1520 1520 1518 1515 1513 1517 1530 1526 1525 1522 1521 1522 1516 1512 1509 1508 1504 1504 1493 1490 1486 1483 1475 1464 1460 1455 1450 1449 1448 1448 1460 1468 1477 1489 1469 1470 1479 1474 1478 1478 1479 1479 1482 1483
1522 1520 1521 1518 1516 1515 1535 1531 1526 1525 1523 1524 1524 1520 1515 1523 1521 1506 1512 1496 1490 1486 1482 1479 1476 1466 1461 1464 1464 1459 1464 1457 1462 1468 1453 1476 1470 1479 1481 1480 1479 1480 1482 1484 1486
1523 1522 1520 1518 1520 1522 1532 1528 1526 1524 1523 1522 1521 1519 1516 1515 1517 1512 1510 1502 1494 1491 1488 1482 1477 1483 1469 1464 1463 1462 1458 1461 1476 1479 1477 1478 1481 1478 1478 1476 1477 1481 1483 1486 1489
1523 1522 1521 1519 1534 1534 1527 1525 1526 1524 1523 1521 1521 1520 1516 1515 1517 1506 1503 1498 1495 1493 1493 1487 1491 1491 1474 1469 1463 1463 1458 1459 1466 1467 1485 1492 1485 1481 1480 1479 1482 1483 1486 1488 1489
1524 1524 1522 1522 1526 1529 1534 1531 1528 1525 1523 1522 1522 1520 1518 1516 1511 1511 1505 1499 1496 1495 1491 1487 1491 1491 1480 1479 1480 1472 1473 1467 1467 1480 1484 1491 1481 1481 1483 1485 1485 1487 1488 1490 1492
1523 1523 1523 1531 1528 1528 1530 1530 1528 1527 1524 1522 1522 1522 1521 1524 1518 1512 1508 1503 1497 1497 1494 1495 1493 1494 1482 1476 1477 1474 1483 1479 1478 1468 1478 1483 1489 1484 1485 1487 1487 1488 1490 1491 1493
1522 1522 1524 1526 1526 1527 1529 1531 1527 1527 1526 1524 1525 1522 1519 1522 1516 1511 1511 1509 1505 1500 1503 1500 1498 1492 1492 1477 1480 1483 1482 1480 1476 1475 1477 1478 1485 1485 1486 1487 1489 1489 1490 1491 1493
1518 1520 1521 1524 1525 1528 1527 1525 1525 1525 1524 1522 1523 1520 1518 1516 1514 1510 1508 1508 1507 1506 1507 1512 1506 1503 1490 1485 1495 1496 1496 1493 1485 1485 1483 1483 1485 1486 1488 1489 1490 1490 1490 1491 1491